Voltar ao catálogo

THORAD AGENA D DEB

AtivoLEO
NORAD 4438·DEBRIS·🇺🇸 United States

Lançado Sep 30, 1969 de Vandenberg Space Force Base

Loading…

Próximas Passagens (próximas 24 horas)

TLE

AtualizadoSource: Space-Track

Época: Sep 14, 2026, 08:05 UTC

1 04438U 69082EK  26257.33688057  .00001369  00000-0  25414-3 0  9994
2 04438  70.0965  24.8745 0044763  19.8112 340.4756 14.66821370987757

Acompanhe THORAD AGENA D DEB em tempo real com AllMySat

Download on the App Store